Weather History for KBLV - January, 2013

Change the Weather History Date:

Thursday, January 10, 2013

  Actual Average Record
Temperature  
Mean Temperature 50 °F -  
Max Temperature 60 °F 35 °F - (-1)
Min Temperature 40 °F 16 °F - (-1)
Degree Days  
Heating Degree Days 15    
Moisture  
Dew Point 48 °F    
Average Humidity 95    
Maximum Humidity 100    
Minimum Humidity 75    
Precipitation  
Precipitation 0.71 in - - ()
Sea Level Pressure  
Sea Level Pressure 30.03 in    
Wind  
Wind Speed 8 mph (ESE)    
Max Wind Speed 15 mph    
Max Gust Speed 23 mph    
Visibility 4 miles    
Events Fog , Rain , Thunderstorm    
Averages and records for this station are not official NWS values.
T = Trace of Precipitation, MM = Missing Value Source: NWS Daily Summary

Daily Weather History Graph

Daily Weather History Graph

Search for Another Location

Airport or City:

Trip Planner

Search our weather history database for the weather conditions in past years. The results will help you decide how hot, cold, wet, or windy it might be!

Date:

Astronomy

Jan. 10, 2013 Rise Set
Actual Time 7:16 AM CST 4:57 PM CST
Civil Twilight 6:47 AM CST 5:26 PM CST
Nautical Twilight 6:14 AM CST 5:59 PM CST
Astronomical Twilight 5:42 AM CST 6:31 PM CST
Moon 5:56 AM CST (1/10) 4:05 PM CST (1/10)
Length of Visible Light 10h 39m
Length of Day
9h 40m
Waning Crescent, 2% of the Moon is Illuminated
Jan 10
Waning Crescent
Jan 11
New
Jan 18
First Quarter
Jan 26
Full
Feb 3
Last Quarter

Hourly Weather History & Observations

Time (CST) Temp. Windchill Dew Point Humidity Pressure Visibility Wind Dir Wind Speed Gust Speed Precip Events Conditions
12:55 AM 40.6 °F 37.5 °F 33.8 °F 77% 30.46 in 10.0 mi East 4.6 mph - N/A   Scattered Clouds
1:55 AM 40.6 °F 36.7 °F 34.3 °F 78% 30.43 in 10.0 mi ENE 5.8 mph - N/A   Overcast
2:55 AM 41.7 °F 38.0 °F 34.7 °F 76% 30.43 in 10.0 mi East 5.8 mph - N/A   Overcast
3:55 AM 41.7 °F 38.0 °F 34.7 °F 76% 30.39 in 10.0 mi ENE 5.8 mph - N/A   Mostly Cloudy
4:55 AM 42.3 °F 37.3 °F 35.1 °F 76% 30.35 in 10.0 mi ENE 8.1 mph - N/A   Mostly Cloudy
5:55 AM 42.4 °F 38.1 °F 35.4 °F 76% 30.34 in 10.0 mi NE 6.9 mph - N/A   Overcast
6:24 AM 42.8 °F 39.3 °F 35.6 °F 76% 30.33 in 10.0 mi ENE 5.8 mph - N/A Rain Light Rain
6:37 AM 42.8 °F 40.1 °F 35.6 °F 76% 30.33 in 10.0 mi ENE 4.6 mph - N/A   Mostly Cloudy
6:55 AM 42.3 °F 38.6 °F 36.0 °F 78% 30.33 in 10.0 mi ENE 5.8 mph - 0.00 in   Mostly Cloudy
7:05 AM 42.8 °F 38.6 °F 35.6 °F 76% 30.33 in 10.0 mi East 6.9 mph - N/A   Overcast
7:24 AM 42.8 °F 39.3 °F 35.6 °F 76% 30.32 in 10.0 mi ENE 5.8 mph - N/A   Light Drizzle
7:34 AM 42.8 °F 39.3 °F 37.4 °F 81% 30.32 in 10.0 mi ENE 5.8 mph - N/A   Overcast
7:54 AM 42.8 °F 39.3 °F 37.4 °F 81% 30.31 in 10.0 mi East 5.8 mph - N/A   Light Drizzle
7:55 AM 42.3 °F 38.6 °F 36.5 °F 80% 30.32 in 10.0 mi East 5.8 mph - 0.00 in   Overcast
8:03 AM 42.8 °F 38.0 °F 37.4 °F 81% 30.30 in 10.0 mi ENE 8.1 mph - N/A   Overcast
8:55 AM 44.1 °F 39.5 °F 36.7 °F 75% 30.28 in 10.0 mi East 8.1 mph - 0.00 in Rain Light Rain
9:06 AM 44.6 °F 40.2 °F 37.4 °F 76% 30.27 in 10.0 mi East 8.1 mph - N/A   Overcast
9:29 AM 44.6 °F 38.4 °F 39.2 °F 81% 30.27 in 10.0 mi ESE 12.7 mph - N/A Rain Light Rain
9:30 AM 44.6 °F 38.4 °F 39.2 °F 81% 30.27 in 10.0 mi ESE 12.7 mph - N/A Rain Light Rain
9:47 AM 44.6 °F 39.2 °F 41.0 °F 87% 30.27 in 3.0 mi SE 10.4 mph - N/A Rain Light Rain
9:55 AM 43.7 °F 38.6 °F 42.1 °F 94% 30.26 in 3.0 mi ESE 9.2 mph - 0.02 in Rain Light Rain
9:58 AM 42.8 °F 37.5 °F 42.8 °F 100% 30.26 in 3.0 mi ESE 9.2 mph - N/A Rain Light Rain
10:12 AM 42.8 °F 37.5 °F 42.8 °F 100% 30.25 in 1.8 mi ESE 9.2 mph - N/A Rain Light Rain
10:22 AM 42.8 °F 37.0 °F 42.8 °F 100% 30.25 in 2.5 mi ESE 10.4 mph - N/A   Overcast
10:34 AM 42.8 °F 37.0 °F 42.8 °F 100% 30.24 in 3.0 mi ESE 10.4 mph - N/A Rain Light Rain
10:55 AM 43.2 °F 37.4 °F 43.0 °F 99% 30.23 in 2.5 mi ESE 10.4 mph - 0.07 in   Overcast
11:34 AM 42.8 °F 37.0 °F 42.8 °F 100% 30.19 in 2.5 mi ESE 10.4 mph - N/A   Overcast
11:55 AM 43.9 °F 37.5 °F 43.9 °F 100% 30.16 in 2.5 mi ESE 12.7 mph - N/A   Overcast
12:55 PM 45.0 °F 38.9 °F 45.0 °F 100% 30.11 in 3.0 mi ESE 12.7 mph - N/A   Overcast
1:55 PM 46.0 °F 40.2 °F 46.0 °F 100% 30.09 in 5.0 mi SE 12.7 mph - N/A   Overcast
2:07 PM 46.4 °F 41.1 °F 46.4 °F 100% 30.06 in 4.0 mi ESE 11.5 mph - N/A   Overcast
2:12 PM 46.4 °F 41.1 °F 46.4 °F 100% 30.07 in 2.5 mi ESE 11.5 mph - N/A   Overcast
2:15 PM 46.4 °F 40.7 °F 46.4 °F 100% 30.05 in 2.5 mi SE 12.7 mph - N/A   Overcast
2:17 PM 46.4 °F 40.4 °F 46.4 °F 100% 30.05 in 1.0 mi SE 13.8 mph - N/A   Overcast
2:27 PM 46.4 °F 40.4 °F 46.4 °F 100% 30.05 in 1.2 mi SE 13.8 mph - N/A   Overcast
2:29 PM 46.4 °F 40.7 °F 46.4 °F 100% 30.06 in 1.8 mi SE 12.7 mph - N/A   Overcast
2:51 PM 48.2 °F - 48.2 °F 100% 30.02 in 1.2 mi ESE 11.5 mph - N/A   Overcast
3:27 PM 48.2 °F - 48.2 °F 100% 30.01 in 0.5 mi ESE 12.7 mph - N/A Fog Fog
3:32 PM 48.2 °F - 48.2 °F 100% 30.01 in 0.5 mi ESE 10.4 mph - N/A Fog Fog
3:55 PM 48.4 °F - 48.4 °F 100% 30.01 in 0.5 mi ESE 10.4 mph - 0.01 in Fog , Rain Light Rain
4:02 PM 48.2 °F - 48.2 °F 100% 29.99 in 0.5 mi East 9.2 mph - N/A Fog , Rain Light Rain
4:03 PM 48.2 °F - 48.2 °F 100% 29.99 in 0.8 mi East 9.2 mph - N/A Rain Light Rain
4:14 PM 48.2 °F - 48.2 °F 100% 29.99 in 0.8 mi East 10.4 mph - N/A Rain Light Rain
4:23 PM 48.2 °F - 48.2 °F 100% 29.96 in 0.8 mi East 10.4 mph - N/A Rain Light Rain
4:24 PM 48.2 °F - 48.2 °F 100% 29.96 in 0.8 mi ESE 10.4 mph - N/A Rain Light Rain
4:35 PM 48.2 °F - 48.2 °F 100% 29.96 in 0.8 mi ESE 9.2 mph - N/A   Overcast
4:45 PM 48.2 °F - 48.2 °F 100% 29.98 in 0.8 mi East 8.1 mph - N/A   Overcast
4:55 PM 48.6 °F - 48.6 °F 100% 29.97 in 0.8 mi East 9.2 mph - 0.02 in   Light Drizzle
5:19 PM 50.0 °F - 50.0 °F 100% 29.96 in - ESE 10.4 mph - N/A   Overcast
5:25 PM 50.0 °F - 50.0 °F 100% 29.96 in 0.8 mi ESE 12.7 mph - N/A   Overcast
5:36 PM 50.0 °F - 50.0 °F 100% 29.96 in 0.8 mi ESE 10.4 mph - N/A   Overcast
5:55 PM 49.8 °F - 49.8 °F 100% 29.96 in 0.8 mi ESE 11.5 mph - 0.00 in   Overcast
6:00 PM 50.0 °F - 50.0 °F 100% 29.95 in 1.0 mi ESE 11.5 mph - N/A   Overcast
6:04 PM 50.0 °F - 50.0 °F 100% 29.95 in 1.0 mi ESE 10.4 mph - N/A   Overcast
6:27 PM 50.0 °F - 50.0 °F 100% 29.95 in 0.8 mi ESE 8.1 mph - N/A   Overcast
6:40 PM 50.0 °F - 50.0 °F 100% 29.95 in 1.0 mi ESE 6.9 mph - N/A   Overcast
6:55 PM 50.9 °F - 50.9 °F 100% 29.95 in 1.0 mi SE 6.9 mph - 0.01 in   Overcast
7:14 PM 51.8 °F - 51.8 °F 100% 29.94 in 1.0 mi SE 6.9 mph - N/A   Overcast
7:18 PM 51.8 °F - 51.8 °F 100% 29.94 in 0.8 mi SE 5.8 mph - N/A   Overcast
7:36 PM 51.8 °F - 51.8 °F 100% 29.93 in 0.5 mi ESE 4.6 mph - N/A Fog Fog
7:38 PM 51.8 °F - 51.8 °F 100% 29.93 in 0.5 mi ESE 5.8 mph - N/A Fog Fog
7:55 PM 52.0 °F - 52.0 °F 100% 29.92 in 0.5 mi East 4.6 mph - N/A Fog Fog
7:58 PM 51.8 °F - 51.8 °F 100% 29.91 in 0.5 mi East 5.8 mph - N/A Fog Light Drizzle
8:16 PM 51.8 °F - 51.8 °F 100% 29.90 in 0.5 mi ESE 6.9 mph - N/A Fog , Rain Light Rain
8:17 PM 51.8 °F - 51.8 °F 100% 29.90 in 0.8 mi ESE 6.9 mph - N/A Rain Light Rain
8:35 PM 53.6 °F - 53.6 °F 100% 29.88 in 3.0 mi ESE 9.2 mph - N/A Rain Light Rain
8:41 PM 53.6 °F - 53.6 °F 100% 29.87 in 4.0 mi ESE 10.4 mph - N/A   Overcast
8:53 PM 53.6 °F - 53.6 °F 100% 29.86 in 4.0 mi ESE 9.2 mph - N/A   Overcast
8:55 PM 53.8 °F - 53.8 °F 100% 29.87 in 4.0 mi ESE 9.2 mph - 0.02 in   Light Drizzle
9:07 PM 55.4 °F - 55.4 °F 100% 29.85 in 3.0 mi SE 9.2 mph - N/A Rain Light Rain
9:21 PM 55.4 °F - 55.4 °F 100% 29.84 in 3.0 mi SE 12.7 mph - N/A Rain Light Rain
9:34 PM 55.4 °F - 55.4 °F 100% 29.83 in 4.0 mi SE 12.7 mph - N/A Rain Light Rain
9:44 PM 55.4 °F - 55.4 °F 100% 29.83 in 4.0 mi SE 13.8 mph - N/A   Overcast
9:55 PM 56.5 °F - 56.5 °F 100% 29.82 in 4.0 mi SE 12.7 mph - 0.11 in Rain Light Rain
9:58 PM 57.2 °F - 57.2 °F 100% 29.81 in 2.0 mi SE 15.0 mph - N/A Rain Light Rain
10:01 PM 57.2 °F - 57.2 °F 100% 29.81 in 2.0 mi SE 13.8 mph - N/A Rain Light Rain
10:10 PM 57.2 °F - 57.2 °F 100% 29.81 in 3.0 mi SE 13.8 mph - N/A Rain Light Rain
10:22 PM 57.2 °F - 57.2 °F 100% 29.81 in 7.0 mi SE 11.5 mph - N/A   Overcast
10:37 PM 59.0 °F - 59.0 °F 100% 29.80 in 4.0 mi SE 10.4 mph - N/A Rain Light Rain
10:54 PM 59.0 °F - 59.0 °F 100% 29.78 in 2.5 mi SE 13.8 mph - N/A Rain Light Rain
10:55 PM 59.2 °F - 59.2 °F 100% 29.78 in 2.5 mi SE 15.0 mph 23.0 mph 0.23 in Rain Light Rain
11:07 PM 59.0 °F - 59.0 °F 100% 29.79 in 4.0 mi SSE 13.8 mph - N/A Rain Light Rain
11:08 PM 59.0 °F - 59.0 °F 100% 29.79 in 3.0 mi SSE 12.7 mph - N/A Rain Light Rain
11:10 PM 59.0 °F - 59.0 °F 100% 29.79 in 2.5 mi SSE 12.7 mph - N/A Rain Heavy Rain
11:19 PM 59.0 °F - 59.0 °F 100% 29.80 in 2.5 mi SSE 9.2 mph - N/A Rain , Thunderstorm Light Rain
11:25 PM 59.0 °F - 59.0 °F 100% 29.80 in 4.0 mi SSE 11.5 mph 18.4 mph N/A Rain , Thunderstorm Light Rain
11:32 PM 59.0 °F - 59.0 °F 100% 29.80 in 6.0 mi South 8.1 mph 18.4 mph N/A Rain Light Rain
11:34 PM 60.8 °F - 60.8 °F 100% 29.80 in 7.0 mi South 3.5 mph 18.4 mph N/A Rain Light Rain
11:38 PM 60.8 °F - 60.8 °F 100% 29.80 in 8.0 mi Variable 6.9 mph - N/A   Mostly Cloudy
11:53 PM 60.8 °F - 60.8 °F 100% 29.79 in 10.0 mi Variable 4.6 mph - N/A   Mostly Cloudy
11:55 PM 60.4 °F - 60.4 °F 100% 29.80 in 10.0 mi Variable 3.5 mph - 0.22 in   Mostly Cloudy